User: anonymous   Login
Location: Del Oro Observatory
(38.3044°N, 104.8119°W)
Time: 13:27:34
(UTC-06:00)
Language:

Cosmos 1602 Rocket - Orbit

View from above orbital plane
View from above orbital plane
View from above satellite
View from above satellite

Ground track
Ground track

The orbit data is extracted from the following two-line orbital elements,

1 15332U 84105B   18147.31986001  .00000062  00000-0  46793-5 0  9993
2 15332  82.5364 226.3891 0020054 318.7316 106.5745 14.83353429817607
Epoch (UTC): 27 May 2018 07:40:35
Eccentricity: 0.0020054
inclination: 82.5364°
perigee height: 605 km
apogee height: 633 km
right ascension of ascending node: 226.3891°
argument of perigee: 318.7316°
revolutions per day: 14.83353429
mean anomaly at epoch: 106.5745°
orbit number at epoch: 81760

The dashed part of the orbit path shows where the satellite is in the earth's shadow,  

DLR